CW8667 Weather Reports


time (UTC)temp
F
wind
direction
speed
knots
gust
knots
rain 1hr
in
rain 24hr
in
rain mn
in
humidity
%
barometer
mb
20190419101518 59 45 0.9 2.6 0.00 0.00 0.00 80 1022.5
20190419100519 59 67 2.6 4.3 0.00 0.00 0.00 80 1022.4
20190419095518 59 90 2.6 5.2 0.00 0.00 0.00 80 1022.3
20190419094519 60 90 2.6 6.1 0.00 0.00 0.00 79 1022.3
20190419093518 60 90 1.7 3.5 0.00 0.00 0.00 79 1022.3
20190419092519 60 90 2.6 6.1 0.00 0.00 0.00 79 1022.3
20190419090519 61 90 5.2 7.8 0.00 0.00 0.00 79 1022.3
20190419085518 61 90 3.5 6.1 0.00 0.00 0.00 78 1022.4
20190419084519 61 112 3.5 6.1 0.00 0.00 0.00 77 1022.3
20190419083518 61 90 2.6 6.1 0.00 0.00 0.00 77 1022.3
20190419082519 61 90 1.7 3.5 0.00 0.00 0.00 76 1022.2
20190419081519 62 112 2.6 4.3 0.00 0.00 0.00 75 1022.1
20190419080518 63 112 2.6 4.3 0.00 0.00 0.00 74 1022.1
20190419075518 63 112 2.6 6.1 0.00 0.00 0.00 74 1022.0
20190419074520 63 112 4.3 7.0 0.00 0.00 0.00 73 1022.0
20190419074019 64 112 3.5 7.0 0.00 0.00 0.00 73 1021.9
20190419073018 64 135 4.3 9.6 0.00 0.00 0.00 72 1022.0
20190419072018 64 247 0.9 2.6 0.00 0.00 0.00 71 1021.9
20190419071018 64 247 1.7 3.5 0.00 0.00 0.00 71 1021.8
20190419070018 64 225 1.7 3.5 0.00 0.00 0.00 70 1021.9
20190419065019 64 225 1.7 2.6 0.00 0.00 0.00 69 1021.9
20190419064018 64 225 2.6 4.3 0.00 0.00 0.00 69 1021.9
20190419063018 64 225 2.6 5.2 0.00 0.00 0.00 70 1021.9
20190419062018 63 202 3.5 6.1 0.00 0.00 0.00 69 1021.9
20190419061019 63 202 3.5 6.1 0.00 0.00 0.00 67 1022.1
20190419060018 63 225 3.5 5.2 0.00 0.00 0.00 66 1022.1
20190419055018 64 225 3.5 5.2 0.00 0.00 0.00 64 1022.1
20190419054018 65 225 3.5 5.2 0.00 0.00 0.00 63 1022.1
20190419053018 65 247 2.6 4.3 0.00 0.00 0.00 64 1022.0
20190419052018 63 247 3.5 6.1 0.00 0.00 0.00 66 1022.2
20190419051018 64 225 6.1 8.7 0.00 0.00 0.00 65 1022.2
20190419050018 65 292 2.6 6.1 0.00 0.00 0.00 64 1022.3
20190419045018 63 247 3.5 7.8 0.00 0.00 0.00 68 1022.4
20190419044018 63 247 4.3 8.7 0.00 0.00 0.00 68 1022.5
20190419043018 63 247 7.0 9.6 0.00 0.00 0.00 68 1022.6
20190419042018 64 247 7.0 10.4 0.00 0.00 0.00 66 1022.7
20190419041018 65 247 6.1 9.6 0.00 0.00 0.00 65 1022.7
20190419040018 65 270 4.3 8.7 0.00 0.00 0.00 64 1022.6
20190419035017 66 315 4.3 8.7 0.00 0.00 0.00 62 1022.5
20190419034018 66 0 4.3 7.8 0.00 0.00 0.00 62 1022.6
20190419033018 65 0 5.2 8.7 0.00 0.00 0.00 62 1022.5
20190419032017 66 0 5.2 11.3 0.00 0.00 0.00 62 1022.6
20190419031017 66 0 5.2 9.6 0.00 0.00 0.00 62 1022.8
20190419030018 65 0 6.1 8.7 0.00 0.00 0.00 62 1022.9
20190419025018 66 0 6.1 10.4 0.00 0.00 0.00 61 1023.0
20190419024018 67 67 4.3 7.0 0.00 0.00 0.00 59 1023.3
20190419023017 67 67 2.6 10.4 0.00 0.00 0.00 59 1023.4
20190419022019 66 0 0.9 3.5 0.00 0.00 0.00 60 1023.6
20190419021018 65 45 5.2 13.0 0.00 0.00 0.00 61 1023.9
20190419020017 65 67 4.3 10.4 0.00 0.00 0.00 61 1024.2
20190419015017 64 67 4.3 10.4 0.00 0.00 0.00 62 1024.2
20190419014017 64 67 6.1 13.0 0.00 0.00 0.00 62 1024.4
20190419013017 64 90 2.6 7.0 0.00 0.00 0.00 63 1024.7
20190419012017 63 67 7.0 13.9 0.00 0.00 0.00 62 1024.7
20190419011018 63 90 6.1 11.3 0.00 0.00 0.00 63 1024.8
20190419010017 63 90 5.2 11.3 0.00 0.00 0.00 64 1024.7
20190419005018 62 90 7.8 15.6 0.00 0.00 0.00 64 1024.9
20190419004017 62 90 7.0 13.0 0.00 0.00 0.00 64 1024.9
20190419003017 62 67 6.1 12.2 0.00 0.00 0.00 64 1025.1
20190419002017 62 90 7.0 14.8 0.00 0.00 0.00 64 1025.3
20190419001129 62 90 7.8 13.0 0.00 0.00 0.00 64 1025.3
20190419000017 62 90 6.1 13.0 0.00 0.00 0.00 66 1025.4
20190418235020 62 90 7.0 13.9 0.00 0.00 0.00 66 1025.5
20190418234019 61 90 7.8 12.2 0.00 0.00 0.00 67 1025.5
20190418233042 61 90 8.7 14.8 0.00 0.00 0.00 67 1025.4
20190418232017 60 90 12.2 17.4 0.00 0.00 0.00 67 1025.5
20190418231019 60 90 9.6 17.4 0.00 0.00 0.00 68 1025.6
20190418230019 60 112 6.1 15.6 0.00 0.00 0.00 69 1025.6
20190418225018 60 90 7.8 15.6 0.00 0.00 0.00 70 1025.7
20190418224017 59 90 8.7 13.9 0.00 0.00 0.00 71 1025.7
20190418223019 59 90 7.8 13.9 0.00 0.00 0.00 72 1025.8
20190418222019 58 90 6.1 12.2 0.00 0.00 0.00 74 1025.6
20190418221017 58 112 6.1 9.6 0.00 0.00 0.00 75 1025.5
20190418220017 57 112 3.5 7.8 0.00 0.00 0.00 76 1025.5
20190418215019 56 112 3.5 6.1 0.00 0.00 0.00 76 1025.4
20190418214019 56 112 3.5 7.0 0.00 0.00 0.00 76 1025.3
20190418213017 55 112 5.2 8.7 0.00 0.00 0.00 76 1025.2
20190418212019 55 112 3.5 4.3 0.00 0.00 0.00 77 1025.2
20190418211019 55 112 3.5 6.1 0.00 0.00 0.00 77 1025.2
20190418210019 54 112 2.6 4.3 0.00 0.00 0.00 77 1025.1
20190418205019 54 90 0.9 2.6 0.00 0.00 0.00 77 1025.2
20190418204018 54 112 1.7 3.5 0.00 0.00 0.00 77 1025.2
20190418203019 54 90 1.7 3.5 0.00 0.00 0.00 76 1025.2
20190418202019 54 112 1.7 3.5 0.00 0.00 0.00 76 1025.2
20190418201019 54 112 1.7 3.5 0.00 0.00 0.00 76 1025.2
20190418200017 54 112 3.5 4.3 0.00 0.00 0.00 76 1025.1
20190418195019 54 112 3.5 6.1 0.00 0.00 0.00 75 1025.1
20190418194019 55 112 6.1 7.8 0.00 0.00 0.00 75 1025.0
20190418193019 54 112 5.2 7.8 0.00 0.00 0.00 75 1025.1
20190418192019 54 112 6.1 9.6 0.00 0.00 0.00 75 1025.1
20190418191019 54 112 5.2 7.8 0.00 0.00 0.00 76 1025.2
20190418190019 54 112 1.7 3.5 0.00 0.00 0.00 75 1025.2
20190418185019 54 112 3.5 6.1 0.00 0.00 0.00 75 1025.2
20190418184019 54 112 4.3 7.0 0.00 0.00 0.00 75 1025.3
20190418183019 54 112 4.3 7.0 0.00 0.00 0.00 75 1025.2
20190418182019 55 112 5.2 7.8 0.00 0.00 0.00 75 1025.1
20190418181018 54 112 6.1 7.8 0.00 0.00 0.00 75 1025.0
20190418180018 54 112 5.2 7.0 0.00 0.00 0.00 75 1025.2
20190418175018 54 112 4.3 7.0 0.00 0.00 0.00 75 1025.2
20190418174018 53 112 4.3 6.1 0.00 0.00 0.00 75 1025.2
20190418173018 53 112 3.5 5.2 0.00 0.00 0.00 74 1025.3
20190418172018 53 90 3.5 6.1 0.00 0.00 0.00 74 1025.3
20190418171018 53 90 3.5 6.1 0.00 0.00 0.00 75 1025.3
20190418170018 53 90 4.3 7.8 0.00 0.00 0.00 75 1025.4
20190418165018 53 90 3.5 7.8 0.00 0.00 0.00 74 1025.5
20190418164018 54 90 3.5 5.2 0.00 0.00 0.00 74 1025.6
20190418163018 54 90 2.6 5.2 0.00 0.00 0.00 73 1025.7
20190418162018 54 90 0.9 2.6 0.00 0.00 0.00 73 1025.9
20190418161018 54 90 0.9 1.7 0.00 0.00 0.00 72 1026.0
20190418160018 54 90 0.9 1.7 0.00 0.00 0.00 72 1026.0
20190418155018 54 90 0.9 1.7 0.00 0.00 0.00 72 1026.1
20190418154018 55 90 0.9 2.6 0.00 0.00 0.00 71 1026.1
20190418153018 55 112 1.7 3.5 0.00 0.00 0.00 70 1026.2
20190418152018 56 112 3.5 6.1 0.00 0.00 0.00 69 1026.3
20190418151018 56 112 4.3 7.0 0.00 0.00 0.00 69 1026.3
20190418150018 56 112 4.3 7.8 0.00 0.00 0.00 68 1026.3
20190418145018 56 112 4.3 7.0 0.00 0.00 0.00 68 1026.3
20190418144019 56 112 4.3 7.0 0.00 0.00 0.00 69 1026.3
20190418143018 56 112 4.3 7.0 0.00 0.00 0.00 69 1026.3
20190418142018 56 112 5.2 7.8 0.00 0.00 0.00 69 1026.3
20190418141018 56 112 4.3 7.8 0.00 0.00 0.00 69 1026.3
20190418140018 56 135 4.3 7.8 0.00 0.00 0.00 69 1026.4
20190418135042 56 135 4.3 7.0 0.00 0.00 0.00 68 1026.4
20190418134017 56 135 5.2 8.7 0.00 0.00 0.00 68 1026.5
20190418133019 56 135 5.2 8.7 0.00 0.00 0.00 68 1026.6
20190418132019 56 112 5.2 10.4 0.00 0.00 0.00 67 1026.6
20190418131017 56 112 5.2 7.8 0.00 0.00 0.00 67 1026.8
20190418130019 56 112 5.2 7.8 0.00 0.00 0.00 66 1026.9
20190418125019 56 135 4.3 7.0 0.00 0.00 0.00 65 1026.9
20190418124019 56 112 5.2 8.7 0.00 0.00 0.00 65 1026.9
20190418123019 56 112 4.3 7.8 0.00 0.00 0.00 64 1026.9
20190418122020 56 135 4.3 7.8 0.00 0.00 0.00 64 1026.9
20190418121019 56 135 4.3 8.7 0.00 0.00 0.00 64 1026.8
20190418120019 56 112 4.3 7.0 0.00 0.00 0.00 65 1026.9
20190418115018 56 112 5.2 8.7 0.00 0.00 0.00 64 1026.9
20190418114018 57 135 6.1 9.6 0.00 0.00 0.00 64 1026.9
20190418113018 57 135 6.1 9.6 0.00 0.00 0.00 64 1026.8
20190418112019 57 135 5.2 8.7 0.00 0.00 0.00 65 1026.7
20190418111019 57 112 5.2 8.7 0.00 0.00 0.00 65 1026.6
20190418110018 57 135 5.2 8.7 0.00 0.00 0.00 65 1026.6
20190418105018 57 135 4.3 9.6 0.00 0.00 0.00 66 1026.7
20190418104017 57 135 5.2 11.3 0.00 0.00 0.00 67 1026.6
20190418103018 57 135 4.3 8.7 0.00 0.00 0.00 67 1026.7
20190418102018 57 135 6.1 9.6 0.00 0.00 0.00 67 1026.6